[[{"header":{"parameterUnit":"m.s-1","parameterCategory":2,"la1":30.2991,"la2":30.254,"lo1":-89.0895,"lo2":-89.0444,"dy":0.0017,"dx":0.0017,"nx":28,"ny":28,"refTime":"2025-02-04T03:00:00:Z","depth":"0","parameterNumber":2,"parameterNumberName":"U-component_of_CURRENTS"},"data":[0,0,0,0,0,0,0,0,0,0,0,0,0,0,0,0,0,0,0,0,0,0,0,0,0,0,0,0,0,0,0,0,0,0,0,0,0,0,0,0,0,0,0,0,0,0,0,0,0,0,0,0,0,0,0,0,0,0,0.4752,0.4752,0,0.4782,0.4782,0.4783,0.4813,0.4814,0.4815,0.4815,0.4807,0.4806,0.4805,0,0,0,0,0,0,0,0,0,0,0,0,0,0.4388,0.4396,0.4752,0.4753,0.4753,0.4782,0.4782,0.4783,0.4813,0.4814,0.4815,0.4816,0.4807,0.4806,0.4805,0,0,0,0,0,0,0,0,0,0,0,0,0,0.4492,0.4398,0.4752,0.4775,0.4778,0.4782,0.4782,0.4783,0.4813,0.4814,0.4815,0.4816,0.4808,0.4806,0.4805,0.4773,0,0,0.4801,0.48,0,0,0,0,0,0,0,0,0.4486,0.4505,0.4771,0.4773,0.4776,0.4799,0.4651,0.4779,0.4812,0.4795,0.4815,0.4817,0.4802,0.4802,0.48,0.4773,0.4772,0.4801,0.48,0.4799,0.4799,0,0,0,0,0,0,0,0.4479,0.4502,0.476,0.4772,0.4775,0.467,0.4689,0.4674,0.4788,0.4797,0.48,0.4809,0.4803,0.4801,0.4799,0.4772,0.4801,0.4799,0.4798,0.4798,0.476,0.476,0,0,0,0,0,0,0.4502,0.4498,0.4759,0.4761,0.4636,0.4678,0.4698,0.4787,0.4789,0.4792,0.4808,0.4811,0.4803,0.4801,0.4799,0.4798,0.4799,0.4798,0.4797,0.476,0.476,0.476,0,0,0,0,0,0,0.4495,0.4528,0.4758,0.4626,0.4649,0.4686,0.4783,0.4787,0.479,0.4799,0.4801,0.4808,0.4804,0.4801,0.4796,0.4797,0.4797,0.4796,0.476,0.476,0.476,0.4773,0,0,0,0,0,0,0.4486,0.4527,0.4591,0.4632,0.4658,0.4756,0.4782,0.4787,0.4796,0.4799,0.4799,0.4799,0.4804,0.4798,0.4794,0.4795,0.4795,0.4761,0.476,0.476,0.4772,0.4773,0.4773,0,0,0,0,0,0.4474,0.4549,0.4596,0.4626,0.4752,0.4756,0.4758,0.478,0.4794,0.4787,0.48,0.48,0.4794,0.4797,0.4792,0.4793,0.4761,0.476,0.476,0.4772,0.4773,0.4773,0,0,0,0,0,0,0.441,0.4561,0.4612,0.4732,0.4744,0.4763,0.4756,0.4775,0.4778,0.478,0.4793,0.4794,0.4796,0.4785,0.4788,0.4781,0.4778,0.4777,0.4789,0.4789,0.4789,0.4773,0.4794,0,0,0,0,0,0.4435,0.4553,0.4621,0.4711,0.4711,0.4733,0.4737,0.4753,0.4763,0.4766,0.4774,0.4779,0.4788,0.4782,0.4785,0.4766,0.4781,0.4765,0.4765,0.4766,0.475,0.4811,0.4816,0.4759,0.4759,0.4759,0,0,0.4445,0.4533,0.4606,0.4706,0.4711,0.4712,0.4736,0.4737,0.4746,0.4762,0.4765,0.4781,0.4787,0.4786,0.4784,0.4776,0.4785,0.4765,0.4766,0.4749,0.4811,0.4817,0.4823,0.4759,0.4759,0.4759,0,0,0.445,0.4579,0.4638,0.465,0.4674,0.469,0.469,0.4707,0.4718,0.4724,0.4752,0.4765,0.4763,0.4776,0.4781,0.4775,0.4795,0.4779,0.4756,0.4817,0.4823,0.4828,0.4839,0.4845,0.4768,0.4768,0.4768,0,0.4451,0.4553,0.4634,0.4641,0.4651,0.4679,0.4673,0.4684,0.4704,0.4718,0.4724,0.4759,0.4758,0.4778,0.4775,0.4777,0.4804,0.4758,0.482,0.4825,0.483,0.4841,0.4848,0.4769,0.4769,0.4769,0.4769,0,0.4468,0.4531,0.4535,0.4603,0.4612,0.4609,0.4635,0.4647,0.4671,0.4695,0.4723,0.4735,0.4759,0.4762,0.476,0.4793,0.4797,0.4827,0.4823,0.4837,0.4847,0.4853,0.477,0.477,0.4769,0.4769,0,0,0.4523,0.4557,0.4557,0.456,0.4595,0.4599,0.4615,0.4642,0.4658,0.4684,0.4706,0.4725,0.4747,0.4752,0.4767,0.4795,0.4842,0.4815,0.4818,0.4831,0.4953,0.4896,0.4898,0.4902,0.4904,0.4905,0.4939,0,0.4503,0.4511,0.4544,0.4536,0.453,0.4568,0.4581,0.4613,0.4645,0.4668,0.4702,0.4724,0.4742,0.4751,0.4791,0.4834,0.4863,0.4827,0.493,0.4931,0.4886,0.4905,0.4622,0.4624,0.4946,0.4947,0.4948,0,0.4498,0.4509,0.4497,0.451,0.451,0.4516,0.4557,0.4571,0.4619,0.4642,0.4687,0.4719,0.4754,0.4769,0.4865,0.485,0.4893,0.4923,0.4927,0.4871,0.4888,0.4664,0.4625,0.447,0.4959,0.4958,0.4957,0,0.4475,0.4476,0.4472,0.4476,0.4493,0.4501,0.4519,0.4566,0.4576,0.4625,0.4635,0.4714,0.4729,0.4824,0.4886,0.489,0.4984,0.5008,0.4995,0.499,0.4761,0.4734,0.4583,0.5079,0.5079,0.5079,0.5079,0,0.4454,0.444,0.4457,0.445,0.4444,0.4472,0.4477,0.4508,0.4541,0.4554,0.4615,0.4641,0.4748,0.4815,0.4891,0.4954,0.5006,0.4981,0.5002,0.4754,0.4727,0.4594,0.4564,0.508,0.508,0.5079,0.5079,0,0.4412,0.4423,0.441,0.4425,0.4426,0.4423,0.4437,0.4445,0.4479,0.4497,0.4509,0.4586,0.4675,0.477,0.4897,0.4934,0.4864,0.5029,0.4702,0.4685,0.4523,0.4506,0.4307,0.4203,0.501,0.5009,0.5008,0,0.4384,0.4377,0.4387,0.4378,0.4376,0.4375,0.4377,0.4411,0.4422,0.4473,0.4478,0.455,0.462,0.4755,0.4792,0.4887,0.4791,0.4691,0.4649,0.4458,0.4457,0.4349,0.4269,0.4338,0.4331,0.4326,0.4322,0,0.4324,0.4338,0.4334,0.4323,0.4316,0.4304,0.4309,0.4307,0.4354,0.4361,0.4402,0.4461,0.4548,0.4498,0.4587,0.4625,0.4421,0.4591,0.447,0.3973,0.3764,0.3691,0.4357,0.4276,0.428,0.4284,0.4286,0.4288,0.4276,0.4267,0.427,0.4248,0.4246,0.4219,0.4165,0.4185,0.4171,0.4135,0.4282,0.4272,0.421,0.4285,0.4316,0.4057,0.4161,0.3906,0.3917,0.3839,0.3666,0.4224,0.4138,0.4142,0.4145,0.4148,0.415,0,0.4185,0.4189,0.4187,0.415,0.4111,0.413,0.4099,0.4013,0.395,0.399,0.3996,0.3854,0.3752,0.3712,0.3481,0.3367,0.3266,0.326,0.2993,0.2971,0.3499,0.3395,0.3048,0.3048,0.3048,0.3048,0.3049,0.3049,0.4132,0.4093,0.4097,0.4008,0.3982,0.3846,0.3793,0.369,0.3668,0.3491,0.3377,0.3375,0.3265,0.3067,0.2833,0.2778,0.2605,0.2454,0.258,0.2887,0.2945,0.3001,0.2893,0.2446,0.2445,0.1846,0.1842,0.1838]},{"header":{"parameterUnit":"m.s-1","parameterCategory":2,"la1":30.2991,"la2":30.254,"lo1":-89.0895,"lo2":-89.0444,"dy":0.0017,"dx":0.0017,"nx":28,"ny":28,"refTime":"2025-02-04T03:00:00:Z","depth":"0","parameterNumber":3,"parameterNumberName":"V-component_of_CURRENTS"},"data":[0,0,0,0,0,0,0,0,0,0,0,0,0,0,0,0,0,0,0,0,0,0,0,0,0,0,0,0,0,0,0,0,0,0,0,0,0,0,0,0,0,0,0,0,0,0,0,0,0,0,0,0,0,0,0,0,0,0,0.0134,0.0134,0,0.0072,0.0071,0.0071,0.0009,0.0008,0.0008,0.0007,-0.0082,-0.0083,-0.0085,0,0,0,0,0,0,0,0,0,0,0,0,0,0.016,0.016,0.0134,0.0134,0.0133,0.0072,0.0071,0.0071,0.0009,0.0008,0.0007,0.0007,-0.0081,-0.0083,-0.0085,0,0,0,0,0,0,0,0,0,0,0,0,0,0.0128,0.016,0.0135,0.0096,0.0092,0.0073,0.0071,0.007,0.0009,0.0008,0.0007,0.0006,-0.008,-0.0083,-0.0085,-0.0079,0,0,-0.0093,-0.0094,0,0,0,0,0,0,0,0,0.0129,0.0127,0.0102,0.0099,0.0094,0.0048,0.0048,0.0019,0.001,0.004,0.0007,0.0006,-0.0039,-0.0045,-0.0056,-0.0084,-0.0087,-0.0093,-0.0095,-0.0096,-0.0097,0,0,0,0,0,0,0,0.0132,0.0129,0.0109,0.0102,0.0097,0.0068,0.0062,0.0042,0.0006,0.0037,0.0033,0.0028,-0.0042,-0.0053,-0.0058,-0.0089,-0.0093,-0.0096,-0.0097,-0.0098,-0.0138,-0.0137,0,0,0,0,0,0,0.0145,0.0131,0.0111,0.0107,0.0111,0.0069,0.0062,0.0063,0.0006,-0.0003,0.0029,0.0025,-0.0048,-0.0055,-0.0062,-0.006,-0.0096,-0.0098,-0.01,-0.0138,-0.0138,-0.0137,0,0,0,0,0,0,0.0146,0.0144,0.0113,0.0118,0.0112,0.007,0.0071,0.0063,0.0052,0.0001,-0.001,0.0026,-0.0049,-0.0058,-0.0079,-0.0064,-0.01,-0.0102,-0.0139,-0.0138,-0.0137,-0.0055,0,0,0,0,0,0,0.0147,0.0145,0.0152,0.0119,0.0112,0.0111,0.0072,0.0062,0.0051,0.0045,-0.0004,-0.0014,-0.0051,-0.0075,-0.0082,-0.0068,-0.0104,-0.0139,-0.0139,-0.0138,-0.0058,-0.0051,-0.0046,0,0,0,0,0,0.0148,0.0167,0.0153,0.0151,0.0123,0.0112,0.0106,0.0071,0.0052,0.0055,0.0017,-0.0012,-0.0074,-0.0076,-0.0084,-0.0071,-0.014,-0.0139,-0.0138,-0.0061,-0.0053,-0.0046,0,0,0,0,0,0,0.0173,0.0161,0.0146,0.0156,0.0139,0.0102,0.0103,0.008,0.0054,0.0048,-0.0004,-0.0016,-0.003,-0.006,-0.0061,-0.0081,-0.0112,-0.0113,-0.0051,-0.0044,-0.0038,-0.0023,-0.0106,0,0,0,0,0,0.0185,0.0201,0.0174,0.0183,0.0178,0.0143,0.0134,0.0114,0.0085,0.0072,0.0034,-0.0003,-0.003,-0.0045,-0.0074,-0.008,-0.0076,-0.0078,-0.0072,-0.0066,-0.006,-0.0027,-0.0016,-0.0134,-0.0134,-0.0134,0,0,0.0195,0.0192,0.0198,0.019,0.0173,0.017,0.0135,0.0132,0.0127,0.0068,0.0052,0.0019,-0.0027,-0.0038,-0.0047,-0.0063,-0.003,-0.0065,-0.006,-0.0057,-0.0024,-0.0013,-0.0002,-0.0133,-0.0133,-0.0133,0,0,0.0225,0.0222,0.0242,0.0234,0.0221,0.0201,0.0204,0.0174,0.0159,0.0143,0.01,0.0083,0.0033,0.0011,-0.0009,0.0017,0.0003,0.0001,0.0046,0.0079,0.009,0.0099,0.0131,0.0143,0.0005,0.0005,0.0005,0,0.0235,0.0252,0.0244,0.0255,0.0249,0.0218,0.0225,0.0212,0.0177,0.0173,0.0147,0.0097,0.0059,0.0054,0.0054,0.0034,0.0049,0.0024,0.0091,0.01,0.0108,0.0138,0.015,0.0009,0.0008,0.0008,0.0008,0,0.0273,0.0282,0.0293,0.0296,0.0293,0.0298,0.0277,0.0274,0.0251,0.0232,0.0223,0.0179,0.0151,0.0136,0.0097,0.0132,0.0123,0.0099,0.0079,0.0126,0.0154,0.0165,0.0015,0.0013,0.0012,0.0011,0,0,0.0303,0.0317,0.032,0.0325,0.0315,0.0318,0.0322,0.0317,0.0328,0.0298,0.0311,0.0266,0.0249,0.0226,0.0189,0.0207,0.0275,0.0178,0.0178,0.0224,0.0356,0.0353,0.0364,0.0269,0.0271,0.0272,0.0358,0,0.0328,0.036,0.0358,0.0377,0.0386,0.0368,0.0374,0.0371,0.036,0.0368,0.0342,0.0336,0.0283,0.0277,0.029,0.0279,0.0305,0.0254,0.0292,0.0293,0.0296,0.0376,0.0346,0.042,0.0368,0.037,0.0371,0,0.0363,0.0379,0.0405,0.0418,0.0421,0.0427,0.0441,0.0445,0.0452,0.0447,0.0448,0.0424,0.044,0.0388,0.0421,0.0394,0.0383,0.0373,0.0376,0.035,0.031,0.036,0.0441,0.0288,0.0388,0.0386,0.0385,0,0.0391,0.0412,0.0435,0.0438,0.0448,0.0458,0.0462,0.0469,0.0484,0.0506,0.0528,0.0532,0.055,0.0544,0.0525,0.048,0.0572,0.0508,0.0496,0.0496,0.0465,0.0458,0.0412,0.054,0.054,0.054,0.054,0,0.0421,0.0439,0.0451,0.0464,0.0494,0.049,0.0522,0.0531,0.0552,0.0603,0.0576,0.0631,0.0592,0.0627,0.0587,0.0602,0.0632,0.053,0.0529,0.0492,0.0487,0.0345,0.0255,0.0543,0.0542,0.0542,0.0541,0,0.0449,0.0456,0.0485,0.0503,0.0508,0.0532,0.0556,0.0586,0.0606,0.0677,0.0692,0.0728,0.0794,0.0761,0.0774,0.0697,0.0621,0.0685,0.0647,0.0638,0.0445,0.0361,0.0341,0.0286,0.0678,0.0678,0.0679,0,0.0467,0.0485,0.0516,0.0539,0.0546,0.0573,0.0597,0.061,0.0653,0.0755,0.0807,0.088,0.0978,0.0994,0.0887,0.0845,0.0688,0.0729,0.0622,0.0457,0.0362,0.0301,0.0251,0.0619,0.0619,0.0618,0.0618,0,0.0498,0.0509,0.0537,0.058,0.0609,0.0647,0.0687,0.0731,0.0786,0.0882,0.1039,0.1133,0.114,0.1116,0.1011,0.0924,0.0601,0.0724,0.0568,0.0334,0.0253,0.0191,0.0533,0.0618,0.0618,0.0618,0.0618,0.0618,0.0521,0.0548,0.0584,0.0628,0.0667,0.0733,0.0796,0.0876,0.0996,0.1184,0.1237,0.145,0.1289,0.1165,0.0997,0.0615,0.0634,0.047,0.0393,0.0357,0.0264,0.0609,0.0675,0.0675,0.0675,0.0676,0.0676,0,0.0548,0.0581,0.0627,0.069,0.0755,0.0763,0.0869,0.0968,0.1164,0.1372,0.1552,0.1628,0.1405,0.1108,0.061,0.033,0.0205,0.0164,0.0042,0.0015,0.0337,0.029,0.0257,0.0257,0.0257,0.0257,0.0258,0.0258,0.0564,0.0613,0.064,0.0752,0.0809,0.0925,0.1007,0.118,0.136,0.1652,0.183,0.1937,0.1671,0.0741,0.0105,-0.0038,-0.0254,-0.0273,-0.0348,-0.019,-0.0169,-0.0149,-0.0216,-0.0354,-0.0355,-0.0657,-0.0661,-0.0663]}],[{"header":{"parameterUnit":"m.s-1","parameterCategory":2,"la1":30.2991,"la2":30.254,"lo1":-89.0895,"lo2":-89.0444,"dy":0.0017,"dx":0.0017,"nx":28,"ny":28,"refTime":"2025-02-04T03:00:00:Z","depth":"2","parameterNumber":2,"parameterNumberName":"U-component_of_CURRENTS"},"data":[0,0,0,0,0,0,0,0,0,0,0,0,0,0,0,0,0,0,0,0,0,0,0,0,0,0,0,0,0,0,0,0,0,0,0,0,0,0,0,0,0,0,0,0,0,0,0,0,0,0,0,0,0,0,0,0,0,0,0.1813,0.1814,0,0.1803,0.1802,0.18,0.1803,0.1804,0.1805,0.1807,0.1873,0.1873,0.1874,0,0,0,0,0,0,0,0,0,0,0,0,0,0.1839,0.1837,0.1813,0.1814,0.1815,0.1803,0.1801,0.18,0.1802,0.1804,0.1806,0.1807,0.1873,0.1873,0.1874,0,0,0,0,0,0,0,0,0,0,0,0,0,0.1816,0.1837,0.1813,0.1824,0.1826,0.1803,0.1801,0.18,0.1802,0.1804,0.1806,0.1808,0.1872,0.1873,0.1874,0.1837,0,0,0.1876,0.1876,0,0,0,0,0,0,0,0,0.1817,0.1813,0.1822,0.1824,0.1826,0.1817,0.1836,0.1821,0.1802,0.1798,0.1807,0.1809,0.1868,0.1869,0.1843,0.184,0.1843,0.1876,0.1877,0.1877,0.1877,0,0,0,0,0,0,0,0.1819,0.1814,0.1796,0.1823,0.1825,0.1832,0.183,0.1831,0.1813,0.1798,0.1802,0.182,0.1868,0.1842,0.1846,0.1844,0.1876,0.1877,0.1877,0.1877,0.2062,0.2066,0,0,0,0,0,0,0.1843,0.1815,0.1797,0.1797,0.1841,0.1831,0.1828,0.1807,0.1811,0.1817,0.1818,0.182,0.184,0.1845,0.1848,0.1923,0.1877,0.1878,0.1878,0.2057,0.2063,0.2068,0,0,0,0,0,0,0.1842,0.1839,0.1797,0.1819,0.1816,0.183,0.1806,0.1807,0.1829,0.1828,0.1833,0.1849,0.1842,0.1847,0.1901,0.1922,0.1878,0.1879,0.2052,0.2059,0.2065,0.1998,0,0,0,0,0,0,0.1842,0.1838,0.182,0.1819,0.1816,0.1824,0.1806,0.1805,0.1841,0.1844,0.1855,0.186,0.1844,0.19,0.1901,0.1922,0.1879,0.2047,0.2055,0.2063,0.1995,0.2002,0.2008,0,0,0,0,0,0.1842,0.1828,0.1817,0.1817,0.1792,0.1827,0.1825,0.1834,0.1841,0.1858,0.1874,0.1862,0.1957,0.1902,0.1903,0.1925,0.2042,0.2053,0.2063,0.1992,0.2,0.2008,0,0,0,0,0,0,0.1839,0.1828,0.1817,0.1799,0.183,0.1834,0.1847,0.1859,0.1876,0.1894,0.1883,0.1889,0.1951,0.1974,0.1914,0.2022,0.2012,0.2023,0.1959,0.1967,0.1973,0.2016,0.188,0,0,0,0,0,0.1826,0.1799,0.1821,0.1808,0.183,0.1842,0.1855,0.1878,0.1902,0.1911,0.1915,0.1953,0.1984,0.2004,0.2036,0.2069,0.2099,0.2109,0.2115,0.2119,0.2168,0.2218,0.223,0.2101,0.2101,0.21,0,0,0.1819,0.1813,0.1796,0.1805,0.182,0.1842,0.1854,0.1905,0.1923,0.1917,0.194,0.1968,0.2006,0.2043,0.2077,0.2064,0.2169,0.2132,0.2133,0.2181,0.2229,0.224,0.2251,0.2107,0.2106,0.2105,0,0,0.1825,0.1797,0.1795,0.1822,0.1874,0.1872,0.1905,0.1938,0.1959,0.1989,0.2004,0.2051,0.2083,0.2103,0.212,0.2197,0.2203,0.2237,0.2281,0.2326,0.2335,0.2344,0.2353,0.2363,0.2233,0.2233,0.2233,0,0.1803,0.1801,0.181,0.1839,0.1863,0.1893,0.1931,0.1941,0.1986,0.2026,0.2013,0.2109,0.2105,0.2178,0.2201,0.22,0.2237,0.2215,0.2325,0.2334,0.2344,0.2353,0.2365,0.2231,0.2232,0.2232,0.2232,0,0.1841,0.1827,0.1845,0.1854,0.1893,0.1929,0.1973,0.2001,0.202,0.2053,0.2151,0.2155,0.2228,0.2227,0.2219,0.2316,0.2321,0.2312,0.2275,0.2351,0.2358,0.2371,0.2228,0.2229,0.223,0.223,0,0,0.1787,0.1841,0.184,0.185,0.1907,0.1937,0.1982,0.2041,0.2082,0.2137,0.2208,0.2253,0.2308,0.2341,0.2354,0.2386,0.2423,0.239,0.2393,0.2349,0.2523,0.2454,0.2461,0.2434,0.2437,0.244,0.2479,0,0.1792,0.1831,0.1865,0.1886,0.1917,0.1957,0.1991,0.2067,0.2113,0.2178,0.2259,0.2327,0.2338,0.237,0.2417,0.2434,0.2469,0.2414,0.2507,0.251,0.2396,0.2479,0.2287,0.2304,0.2492,0.2495,0.2496,0,0.1831,0.1836,0.1879,0.1907,0.1927,0.1946,0.2018,0.206,0.218,0.2238,0.2362,0.2421,0.2517,0.2489,0.2595,0.2571,0.2575,0.257,0.2571,0.2556,0.2469,0.2278,0.2321,0.2519,0.2517,0.2515,0.2514,0,0.1812,0.1844,0.1864,0.1879,0.1924,0.1956,0.1987,0.2102,0.2165,0.23,0.2366,0.2505,0.2585,0.263,0.2668,0.2634,0.2765,0.269,0.2639,0.2631,0.2517,0.2495,0.2777,0.2777,0.2777,0.2777,0.2777,0,0.1796,0.1801,0.1857,0.1844,0.1896,0.1961,0.2022,0.2086,0.2209,0.2298,0.2419,0.2503,0.2636,0.2726,0.2715,0.2748,0.2811,0.2687,0.266,0.2487,0.2463,0.2704,0.2695,0.2779,0.2778,0.2778,0.2778,0,0.1772,0.18,0.1809,0.1846,0.1887,0.1931,0.2034,0.2085,0.2203,0.2318,0.2372,0.2554,0.2655,0.276,0.2834,0.281,0.2813,0.2807,0.259,0.2538,0.262,0.2608,0.2714,0.2712,0.2711,0.271,0.2709,0,0.1752,0.1782,0.1807,0.1839,0.1853,0.1929,0.1999,0.2102,0.2167,0.2319,0.2382,0.2541,0.2633,0.2752,0.2745,0.2749,0.2816,0.2569,0.2458,0.2663,0.2625,0.2615,0.2606,0.2258,0.2253,0.225,0.2247,0,0.1728,0.1751,0.1736,0.1816,0.1878,0.1918,0.2011,0.2034,0.2151,0.2259,0.2352,0.242,0.2556,0.251,0.2582,0.2536,0.2544,0.2489,0.2799,0.2306,0.2238,0.2199,0.2204,0.2214,0.2217,0.2219,0.2221,0.2223,0.1712,0.1721,0.1741,0.1799,0.1867,0.1877,0.1878,0.1951,0.2023,0.2097,0.2197,0.2244,0.2314,0.2293,0.2235,0.2205,0.2347,0.2238,0.2248,0.2262,0.2205,0.2139,0.2083,0.2085,0.2088,0.209,0.2091,0,0.1711,0.1723,0.1756,0.1785,0.1793,0.1866,0.1888,0.1822,0.1848,0.1949,0.2004,0.1848,0.1857,0.193,0.1823,0.1815,0.1777,0.1748,0.1688,0.1724,0.1755,0.1669,0.1407,0.1404,0.1402,0.14,0,0,0.1724,0.1702,0.1701,0.1702,0.1742,0.1734,0.1709,0.1634,0.1638,0.1579,0.1633,0.1747,0.1865,0.1593,0.1572,0.1478,0.1579,0.142,0.1977,0.1943,0.1971,0.2057,0.197,0,0,0,0,0]},{"header":{"parameterUnit":"m.s-1","parameterCategory":2,"la1":30.2991,"la2":30.254,"lo1":-89.0895,"lo2":-89.0444,"dy":0.0017,"dx":0.0017,"nx":28,"ny":28,"refTime":"2025-02-04T03:00:00:Z","depth":"2","parameterNumber":3,"parameterNumberName":"V-component_of_CURRENTS"},"data":[0,0,0,0,0,0,0,0,0,0,0,0,0,0,0,0,0,0,0,0,0,0,0,0,0,0,0,0,0,0,0,0,0,0,0,0,0,0,0,0,0,0,0,0,0,0,0,0,0,0,0,0,0,0,0,0,0,0,0.0231,0.0231,0,0.0246,0.0246,0.0247,0.0215,0.0214,0.0213,0.0212,0.0092,0.009,0.0087,0,0,0,0,0,0,0,0,0,0,0,0,0,0.0225,0.0224,0.0231,0.0231,0.0232,0.0246,0.0246,0.0247,0.0215,0.0214,0.0213,0.0212,0.0093,0.009,0.0087,0,0,0,0,0,0,0,0,0,0,0,0,0,0.0231,0.0224,0.0231,0.0219,0.0218,0.0246,0.0246,0.0247,0.0215,0.0214,0.0212,0.0211,0.0094,0.009,0.0087,0.0093,0,0,0.0076,0.0075,0,0,0,0,0,0,0,0,0.0231,0.0231,0.022,0.0219,0.0219,0.0228,0.02,0.0189,0.0215,0.0215,0.0212,0.021,0.0127,0.0121,0.0127,0.0087,0.0082,0.0076,0.0074,0.0072,0.0071,0,0,0,0,0,0,0,0.023,0.0231,0.0236,0.0221,0.022,0.023,0.0228,0.0199,0.0175,0.0215,0.0213,0.0217,0.0125,0.013,0.0123,0.008,0.0076,0.0073,0.0071,0.0069,-0.0038,-0.0038,0,0,0,0,0,0,0.023,0.023,0.0235,0.0236,0.0223,0.0231,0.0229,0.0226,0.0178,0.0171,0.0218,0.0215,0.0137,0.0127,0.0119,0.0099,0.0072,0.0069,0.0067,-0.0037,-0.0038,-0.0039,0,0,0,0,0,0,0.0229,0.023,0.0235,0.0235,0.0236,0.0232,0.0228,0.0227,0.0224,0.0182,0.0172,0.0216,0.0136,0.0124,0.0074,0.0094,0.0067,0.0064,-0.0036,-0.0037,-0.0038,0.0074,0,0,0,0,0,0,0.0229,0.0229,0.0231,0.0235,0.0236,0.0244,0.023,0.0228,0.0229,0.0226,0.0177,0.0165,0.0134,0.0079,0.007,0.0089,0.0061,-0.0035,-0.0037,-0.0038,0.0071,0.0077,0.0082,0,0,0,0,0,0.0229,0.0241,0.0231,0.0232,0.0237,0.0244,0.0246,0.0238,0.0231,0.023,0.0188,0.0166,0.0064,0.0076,0.0065,0.0084,-0.0034,-0.0036,-0.0038,0.0069,0.0076,0.0081,0,0,0,0,0,0,0.0242,0.024,0.0228,0.0239,0.0236,0.0239,0.0247,0.0241,0.0214,0.0206,0.016,0.0145,0.0109,0.007,0.0085,0.0042,0.001,0.0006,0.0094,0.01,0.0106,0.012,0.0058,0,0,0,0,0,0.0245,0.0253,0.0245,0.0255,0.0252,0.0249,0.0253,0.0247,0.0227,0.0215,0.0178,0.0132,0.0098,0.0077,0.0034,0.0017,-0.0013,0.0016,0.0022,0.0027,0.0027,-0.0,0.0004,-0.0044,-0.0044,-0.0044,0,0,0.0255,0.0256,0.026,0.0259,0.0257,0.0268,0.0247,0.0255,0.0263,0.0204,0.019,0.0147,0.0093,0.0072,0.0053,0.0042,0.0024,0.0025,0.003,0.0027,-0.0001,0.0004,0.0008,-0.0045,-0.0045,-0.0045,0,0,0.0287,0.0274,0.029,0.0287,0.0287,0.0288,0.0288,0.0281,0.0269,0.0254,0.0212,0.018,0.0126,0.0101,0.0081,0.0085,0.005,0.0065,0.0115,0.009,0.0094,0.0098,0.008,0.0081,0.0074,0.0075,0.0075,0,0.0302,0.0315,0.0297,0.031,0.0317,0.0296,0.0315,0.0309,0.0286,0.0279,0.0253,0.0193,0.0147,0.0137,0.0133,0.0104,0.0078,0.0108,0.0101,0.0104,0.0106,0.0087,0.0087,0.008,0.0079,0.0079,0.0078,0,0.0342,0.035,0.036,0.0368,0.037,0.0385,0.037,0.0368,0.0354,0.0343,0.0318,0.0264,0.0231,0.0213,0.0175,0.0169,0.0143,0.0114,0.01,0.0119,0.0096,0.0094,0.0087,0.0085,0.0084,0.0082,0,0,0.0384,0.0391,0.0397,0.0406,0.0403,0.0416,0.0423,0.0428,0.0451,0.0408,0.0431,0.0364,0.0336,0.0308,0.0264,0.0238,0.0233,0.0184,0.018,0.0192,0.0181,0.0144,0.0138,0.0206,0.0206,0.0206,0.0166,0,0.0424,0.0469,0.0459,0.0498,0.051,0.0493,0.0511,0.0508,0.0499,0.051,0.0457,0.0452,0.0373,0.0375,0.0333,0.0264,0.0229,0.0247,0.0136,0.0133,0.012,0.0135,0.0147,0.011,0.0164,0.0163,0.0163,0,0.0461,0.0489,0.0534,0.0561,0.0568,0.0588,0.0621,0.0638,0.0635,0.0625,0.0604,0.0565,0.0529,0.0461,0.0353,0.0367,0.0272,0.021,0.0207,0.013,0.0092,0.0092,0.0104,0.0159,0.0159,0.016,0.016,0,0.0501,0.0538,0.0582,0.0589,0.0617,0.0636,0.0661,0.0669,0.0703,0.0707,0.0737,0.067,0.067,0.0542,0.0406,0.0379,0.0288,0.0241,0.0116,0.0113,0.0078,0.0072,0.0147,0.0147,0.0147,0.0148,0.0148,0,0.0541,0.0573,0.0604,0.0631,0.0689,0.0687,0.0761,0.0767,0.0808,0.0871,0.0803,0.0839,0.0687,0.0618,0.0456,0.0294,0.0325,0.0126,0.0099,0.0116,0.0113,0.0111,0.0107,0.0146,0.0146,0.0147,0.0147,0,0.0561,0.0585,0.0638,0.069,0.0703,0.0749,0.083,0.0895,0.0914,0.1001,0.1013,0.0979,0.0885,0.0722,0.0543,0.0384,0.022,0.0145,0.018,0.0156,0.0046,0.0048,0.0004,0.0002,0.0001,-0.0,-0.0001,0,0.0575,0.06,0.0684,0.0729,0.0751,0.0823,0.0886,0.0934,0.1015,0.1088,0.1143,0.109,0.1047,0.0781,0.0516,0.025,0.0211,0.0077,0.0011,0.0052,0.0031,0.0035,0.0039,0.0016,0.0016,0.0015,0.0015,0,0.0593,0.0625,0.0687,0.0783,0.0854,0.0947,0.1042,0.113,0.1215,0.1264,0.1321,0.1289,0.1056,0.0796,0.0454,0.0266,0.012,0.0053,0.0104,0.0046,0.0059,0.004,0.0044,0.0009,0.001,0.001,0.001,0.0011,0.0615,0.0654,0.0742,0.0839,0.0934,0.1064,0.1162,0.1262,0.1375,0.1452,0.143,0.1347,0.1096,0.0623,0.0361,0.0078,0.0065,-0.0061,-0.0057,-0.0052,-0.0049,-0.004,-0.0106,-0.0107,-0.0107,-0.0107,-0.0107,0,0.063,0.0685,0.0784,0.0915,0.1045,0.1074,0.126,0.135,0.1472,0.1485,0.1475,0.1194,0.0922,0.0638,0.0211,-0.0045,-0.0052,-0.0123,-0.0075,-0.0069,-0.0064,-0.0059,-0.012,-0.0121,-0.0121,-0.0121,0,0,0.0629,0.0725,0.0782,0.0979,0.1077,0.1227,0.134,0.1435,0.1486,0.1462,0.1378,0.1287,0.0962,0.0654,0.0334,0.0108,0.0075,0.0059,0.0089,0.0189,0.0198,-0.0017,-0.0002,0,0,0,0,0]}],[{"header":{"parameterUnit":"m.s-1","parameterCategory":2,"la1":30.2991,"la2":30.254,"lo1":-89.0895,"lo2":-89.0444,"dy":0.0017,"dx":0.0017,"nx":28,"ny":28,"refTime":"2025-02-04T03:00:00:Z","depth":"4","parameterNumber":2,"parameterNumberName":"U-component_of_CURRENTS"},"data":[0,0,0,0,0,0,0,0,0,0,0,0,0,0,0,0,0,0,0,0,0,0,0,0,0,0,0,0,0,0,0,0,0,0,0,0,0,0,0,0,0,0,0,0,0,0,0,0,0,0,0,0,0,0,0,0,0,0,0.0831,0.0831,0,0.0838,0.0838,0.0838,0.0844,0.0844,0.0844,0.0844,0.0874,0.0875,0.0876,0,0,0,0,0,0,0,0,0,0,0,0,0,0.0851,0.085,0.0831,0.0831,0.0831,0.0838,0.0838,0.0838,0.0844,0.0844,0.0844,0.0844,0.0874,0.0875,0.0876,0,0,0,0,0,0,0,0,0,0,0,0,0,0.0848,0.085,0.0831,0.0835,0.0835,0.0838,0.0838,0.0838,0.0844,0.0844,0.0844,0.0844,0.0874,0.0875,0.0876,0.088,0,0,0.0879,0.088,0,0,0,0,0,0,0,0,0.0848,0.0847,0.0834,0.0835,0.0835,0.0841,0.0857,0.0854,0.0844,0.084,0.0844,0.0844,0.0866,0.0867,0.0867,0.0882,0.0883,0.088,0.088,0.0881,0.0881,0,0,0,0,0,0,0,0.0848,0.0847,0.0833,0.0834,0.0835,0.0847,0.0846,0.0856,0.0852,0.084,0.0841,0.0842,0.0866,0.0866,0.0868,0.0884,0.088,0.0881,0.0881,0.0882,0.0978,0.098,0,0,0,0,0,0,0.0846,0.0847,0.0833,0.0834,0.0843,0.0846,0.0845,0.0838,0.0851,0.0853,0.0842,0.0843,0.0864,0.0867,0.0869,0.0924,0.0881,0.0882,0.0882,0.0976,0.0978,0.098,0,0,0,0,0,0,0.0847,0.0845,0.0833,0.0842,0.0841,0.0845,0.0838,0.0838,0.0854,0.0853,0.0855,0.0859,0.0865,0.0868,0.0895,0.0924,0.0882,0.0883,0.0974,0.0977,0.0979,0.1003,0,0,0,0,0,0,0.0847,0.0845,0.0846,0.0841,0.084,0.0847,0.0838,0.0838,0.0854,0.0855,0.0867,0.0869,0.0865,0.0893,0.0896,0.0925,0.0884,0.0971,0.0975,0.0979,0.1,0.1006,0.1012,0,0,0,0,0,0.0848,0.0841,0.0845,0.0844,0.0839,0.0848,0.0849,0.0852,0.0855,0.0866,0.0876,0.087,0.0918,0.0895,0.0898,0.0928,0.097,0.0974,0.0978,0.0997,0.1005,0.1012,0,0,0,0,0,0,0.0853,0.084,0.0846,0.0837,0.0851,0.0849,0.086,0.0863,0.0879,0.0887,0.0883,0.0887,0.0922,0.0927,0.0902,0.097,0.0948,0.0953,0.0961,0.0969,0.0975,0.0981,0.0885,0,0,0,0,0,0.0854,0.0842,0.0848,0.0844,0.0856,0.0864,0.0871,0.0877,0.0887,0.0894,0.0904,0.0922,0.094,0.0955,0.097,0.1002,0.1013,0.103,0.1036,0.104,0.1051,0.1088,0.1097,0.0994,0.0994,0.0994,0,0,0.0852,0.0847,0.084,0.0845,0.0858,0.0876,0.0869,0.0889,0.0905,0.0896,0.0928,0.094,0.0954,0.0988,0.1007,0.0997,0.1077,0.1046,0.1049,0.1057,0.1093,0.1103,0.1111,0.0997,0.0997,0.0996,0,0,0.0844,0.0849,0.0842,0.0862,0.0885,0.0893,0.0904,0.0921,0.0936,0.0964,0.0966,0.0996,0.1024,0.1038,0.1048,0.11,0.1104,0.1116,0.1153,0.1189,0.1197,0.1205,0.123,0.1239,0.1123,0.1123,0.1123,0,0.0848,0.0842,0.0846,0.0862,0.088,0.0904,0.0922,0.0941,0.0965,0.0983,0.0983,0.1039,0.1047,0.1088,0.1111,0.1112,0.1133,0.1117,0.1195,0.1202,0.121,0.1234,0.1244,0.1125,0.1125,0.1125,0.1124,0,0.0836,0.0853,0.0861,0.0883,0.0903,0.0928,0.0957,0.0987,0.1009,0.1027,0.1079,0.1095,0.113,0.1143,0.1142,0.1205,0.1203,0.1191,0.1169,0.1221,0.1244,0.1254,0.1127,0.1127,0.1126,0.1126,0,0,0.0804,0.084,0.0852,0.0873,0.0921,0.0933,0.0977,0.1016,0.1053,0.1088,0.1131,0.117,0.1191,0.1207,0.1217,0.1253,0.1316,0.1253,0.1254,0.1266,0.14,0.1301,0.1302,0.1321,0.1323,0.1324,0.1394,0,0.0805,0.0821,0.0847,0.089,0.0908,0.0958,0.0996,0.1038,0.1082,0.1135,0.1169,0.122,0.1213,0.1245,0.1278,0.131,0.1346,0.1299,0.1359,0.1361,0.1257,0.1311,0.1331,0.1401,0.1404,0.1405,0.1406,0,0.0795,0.0808,0.0832,0.0894,0.0911,0.0946,0.1017,0.1057,0.1138,0.1177,0.1236,0.127,0.1336,0.1321,0.1401,0.1376,0.1398,0.1414,0.1417,0.1324,0.1281,0.1342,0.1424,0.1423,0.1422,0.142,0.1419,0,0.0755,0.081,0.0821,0.0844,0.091,0.0946,0.0993,0.1072,0.112,0.1219,0.1271,0.1338,0.1392,0.1431,0.147,0.1451,0.1549,0.1518,0.1447,0.144,0.1495,0.1486,0.1576,0.1576,0.1576,0.1576,0.1575,0,0.0739,0.0765,0.081,0.0826,0.0865,0.0927,0.0995,0.1056,0.1156,0.1216,0.1299,0.1355,0.1428,0.1487,0.1502,0.1508,0.1576,0.1466,0.1456,0.1504,0.1496,0.1502,0.1492,0.1578,0.1578,0.1577,0.1577,0,0.07,0.0727,0.0753,0.0819,0.0847,0.0878,0.0994,0.1043,0.1153,0.1239,0.1279,0.1394,0.1471,0.1527,0.1597,0.1543,0.156,0.1544,0.1604,0.1594,0.1418,0.1409,0.1465,0.1463,0.146,0.1458,0.1457,0,0.0674,0.0677,0.0734,0.0749,0.0788,0.0853,0.0901,0.1022,0.1081,0.1244,0.1275,0.1399,0.146,0.1492,0.1542,0.1567,0.1545,0.1532,0.1461,0.1424,0.141,0.1404,0.1399,0.1453,0.1452,0.1452,0.1451,0,0.063,0.0652,0.0672,0.07,0.0744,0.0786,0.0874,0.0917,0.1057,0.1164,0.1258,0.1311,0.1394,0.1439,0.1478,0.1484,0.1525,0.1507,0.1511,0.1444,0.141,0.1396,0.1394,0.1443,0.1444,0.1445,0.1445,0,0.0599,0.0599,0.0625,0.0649,0.0686,0.0711,0.0769,0.0856,0.0935,0.1126,0.1146,0.1281,0.1384,0.1397,0.1426,0.1433,0.14,0.1332,0.1344,0.1354,0.1281,0.1219,0.1197,0,0,0,0,0,0.0566,0.0564,0.0575,0.0586,0.0616,0.0641,0.0744,0.081,0.0953,0.0992,0.1076,0.1152,0.1218,0.1279,0.1264,0.135,0.1387,0.1321,0.131,0.1397,0.1407,0.1328,0,0,0,0,0,0,0.054,0.055,0.0556,0.053,0.0526,0.0555,0.0616,0.071,0.0753,0.0903,0.0958,0.1054,0.1145,0.1215,0.1232,0.1248,0.121,0.1399,0.1395,0.1392,0.14,0.1408,0.1331,0,0,0,0,0]},{"header":{"parameterUnit":"m.s-1","parameterCategory":2,"la1":30.2991,"la2":30.254,"lo1":-89.0895,"lo2":-89.0444,"dy":0.0017,"dx":0.0017,"nx":28,"ny":28,"refTime":"2025-02-04T03:00:00:Z","depth":"4","parameterNumber":3,"parameterNumberName":"V-component_of_CURRENTS"},"data":[0,0,0,0,0,0,0,0,0,0,0,0,0,0,0,0,0,0,0,0,0,0,0,0,0,0,0,0,0,0,0,0,0,0,0,0,0,0,0,0,0,0,0,0,0,0,0,0,0,0,0,0,0,0,0,0,0,0,0.0246,0.0247,0,0.026,0.026,0.026,0.0268,0.0269,0.0269,0.0269,0.0215,0.0213,0.0211,0,0,0,0,0,0,0,0,0,0,0,0,0,0.0223,0.0224,0.0246,0.0247,0.0247,0.026,0.026,0.026,0.0268,0.0269,0.0269,0.0269,0.0215,0.0213,0.0211,0,0,0,0,0,0,0,0,0,0,0,0,0,0.0233,0.0224,0.0246,0.0254,0.0255,0.026,0.026,0.026,0.0268,0.0269,0.0269,0.0269,0.0216,0.0213,0.0211,0.019,0,0,0.0204,0.0203,0,0,0,0,0,0,0,0,0.0233,0.0234,0.0252,0.0253,0.0255,0.0264,0.0232,0.0234,0.0268,0.0262,0.0269,0.0269,0.0226,0.0222,0.0223,0.0188,0.0185,0.0203,0.0202,0.0201,0.02,0,0,0,0,0,0,0,0.0232,0.0233,0.025,0.0253,0.0254,0.0255,0.0257,0.0232,0.0239,0.0262,0.0263,0.0267,0.0226,0.0225,0.0222,0.0184,0.0203,0.0201,0.02,0.0199,0.0146,0.0146,0,0,0,0,0,0,0.0233,0.0233,0.025,0.0251,0.0246,0.0256,0.0257,0.0259,0.0241,0.024,0.0267,0.0267,0.023,0.0225,0.022,0.0216,0.0201,0.0199,0.0197,0.0146,0.0146,0.0146,0,0,0,0,0,0,0.0233,0.0235,0.0249,0.0243,0.0245,0.0256,0.0258,0.026,0.0269,0.0246,0.0243,0.0277,0.023,0.0223,0.0209,0.0213,0.0197,0.0195,0.0146,0.0146,0.0146,0.0195,0,0,0,0,0,0,0.0232,0.0234,0.024,0.0243,0.0246,0.0258,0.0258,0.026,0.0272,0.0273,0.0253,0.0248,0.0229,0.0213,0.0207,0.021,0.0193,0.0146,0.0146,0.0146,0.0193,0.0197,0.02,0,0,0,0,0,0.0231,0.0244,0.024,0.0243,0.0252,0.0259,0.026,0.0267,0.0272,0.0277,0.0266,0.0249,0.0209,0.0211,0.0204,0.0206,0.0146,0.0146,0.0146,0.0192,0.0196,0.02,0,0,0,0,0,0,0.0241,0.0246,0.0242,0.0257,0.0258,0.0261,0.0273,0.0273,0.027,0.0275,0.025,0.0244,0.0232,0.0211,0.0214,0.0191,0.0174,0.0173,0.0211,0.0215,0.0218,0.0222,0.0191,0,0,0,0,0,0.0244,0.0256,0.0253,0.0267,0.0268,0.027,0.0275,0.0279,0.0277,0.0277,0.026,0.0242,0.0224,0.0215,0.0194,0.0181,0.0147,0.0177,0.018,0.0183,0.0181,0.0132,0.013,0.0146,0.0146,0.0146,0,0,0.0253,0.0258,0.0265,0.027,0.0273,0.0281,0.0274,0.0289,0.0296,0.0269,0.0272,0.0251,0.0223,0.0212,0.0205,0.0197,0.0162,0.0183,0.0186,0.0182,0.0132,0.013,0.0129,0.0147,0.0147,0.0147,0,0,0.0278,0.0279,0.0295,0.0296,0.0304,0.0301,0.0307,0.0308,0.0309,0.0305,0.0289,0.0272,0.0245,0.0227,0.0214,0.0219,0.018,0.0215,0.0235,0.0188,0.0186,0.0184,0.0147,0.0141,0.0217,0.0218,0.0218,0,0.0288,0.0305,0.0301,0.0313,0.032,0.0312,0.0326,0.0324,0.032,0.0319,0.0311,0.0273,0.025,0.0234,0.024,0.0226,0.0196,0.0226,0.0192,0.0189,0.0186,0.0148,0.0141,0.022,0.022,0.0219,0.0219,0,0.0322,0.0332,0.0343,0.0353,0.0358,0.0371,0.0364,0.0366,0.0362,0.0353,0.0337,0.0303,0.028,0.0271,0.0258,0.0232,0.0218,0.0202,0.0184,0.0188,0.0148,0.0139,0.0223,0.0223,0.0222,0.0221,0,0,0.0342,0.0363,0.0366,0.0375,0.038,0.0389,0.0398,0.0398,0.0406,0.0383,0.0378,0.0346,0.0326,0.0309,0.0285,0.0247,0.0205,0.0223,0.0219,0.0189,0.0107,0.0101,0.0091,0.0184,0.0183,0.0182,0.009,0,0.0366,0.0402,0.0403,0.043,0.0441,0.0435,0.0445,0.0444,0.0433,0.0422,0.0381,0.0367,0.0341,0.0334,0.029,0.0228,0.0185,0.0232,0.0104,0.01,0.0097,0.0082,0.0178,0.0084,0.0082,0.008,0.0079,0,0.0387,0.0411,0.0448,0.0467,0.0473,0.0489,0.0503,0.0512,0.0491,0.048,0.045,0.0414,0.0365,0.0337,0.0224,0.0257,0.0186,0.0131,0.0125,0.0095,0.0079,0.0076,0.0064,0.0065,0.0066,0.0067,0.0068,0,0.0401,0.0433,0.0469,0.0476,0.0501,0.052,0.0535,0.0533,0.0548,0.0518,0.0515,0.0444,0.0412,0.0313,0.0203,0.0212,0.0065,0.006,-0.0015,-0.0016,-0.0004,-0.0001,-0.0034,-0.0034,-0.0034,-0.0034,-0.0033,0,0.0415,0.0439,0.0483,0.0501,0.0547,0.0552,0.0594,0.0594,0.0598,0.061,0.0552,0.053,0.0402,0.0306,0.0203,0.0068,0.006,-0.002,-0.0045,0.002,0.0027,-0.001,-0.0006,-0.0037,-0.0036,-0.0036,-0.0035,0,0.0415,0.0444,0.0486,0.0533,0.0555,0.059,0.0648,0.0674,0.0671,0.0681,0.0675,0.0589,0.0467,0.033,0.0159,0.0075,-0.0057,-0.0106,-0.0025,-0.0044,-0.0105,-0.0097,-0.0193,-0.0194,-0.0195,-0.0195,-0.0196,0,0.0417,0.0442,0.0517,0.0556,0.0583,0.0642,0.0687,0.0712,0.0737,0.0714,0.0713,0.0606,0.0531,0.0289,0.014,-0.0066,-0.0094,-0.0163,-0.0135,-0.0108,-0.0124,-0.0114,-0.0106,-0.0198,-0.0198,-0.0198,-0.0198,0,0.0419,0.0453,0.0495,0.058,0.0641,0.0706,0.0766,0.079,0.0809,0.0805,0.0742,0.0618,0.0472,0.0288,0.0122,-0.0024,-0.0116,-0.0173,-0.0171,-0.0146,-0.0115,-0.0127,-0.0118,-0.0201,-0.0201,-0.0201,-0.0201,0,0.0426,0.0457,0.0525,0.0595,0.0672,0.0739,0.0778,0.0805,0.0829,0.0804,0.0775,0.0623,0.0532,0.0308,0.0154,0.0009,-0.002,-0.006,-0.0065,-0.0063,0.0003,0.0063,0.0002,0,0,0,0,0,0.043,0.0469,0.0534,0.0615,0.069,0.0739,0.0812,0.0843,0.0862,0.0827,0.0805,0.067,0.0441,0.0336,0.0191,0.0134,-0.0049,-0.0041,-0.0098,-0.0219,-0.0215,-0.0161,0,0,0,0,0,0,0.0432,0.0496,0.0529,0.0614,0.0671,0.0759,0.081,0.0832,0.0812,0.0803,0.0684,0.0629,0.0406,0.052,0.0184,0.0139,0.0083,-0.0146,-0.0149,-0.0221,-0.0218,-0.0215,-0.0158,0,0,0,0,0]}]]